Location: Wainuiomapu
(40.9667°S, 175.8333°E)
Time: 05:58:20
(UTC+00:00)

Daily predictions for brighter satellites

Satellite Brightness Start Highest point End
(mag) Time Altitude Azimuth Time Altitude Azimuth Time Altitude Azimuth
USA 229 3.5 08:08:23 10° SW 08:14:55 87° WNW 08:20:49 10° NNE
USA 229 DEB 3.5 08:08:27 10° SW 08:15:01 87° WNW 08:20:55 10° NNE
Cosmos 1066 Rocket 4.4 08:09:12 10° S 08:15:07 87° W 08:20:48 10° N
Nadezhda 1 Rocket 4.3 08:08:52 10° S 08:15:14 57° E 08:21:32 10° NNE
SL-24 R/B 4.5 08:10:58 10° N 08:15:24 68° WNW 08:19:46 10° SSW
YAOGAN 1 4.2 08:13:01 10° S 08:17:04 39° WSW 08:21:03 10° NW
OAO 3 Rocket 3.7 08:12:41 10° WNW 08:17:07 40° N 08:21:29 10° ENE
Meteor 1-18 Rocket 4.4 08:11:48 10° S 08:17:48 88° E 08:23:36 10° N
Cosmos 1271 Rocket 3.6 08:16:32 10° SSE 08:19:32 27° ESE 08:22:30 10° NE
SPOT 5 4.0 08:16:16 10° SE 08:20:58 31° E 08:25:37 10° NNE
SL-16 R/B 3.9 08:17:28 10° S 08:21:40 20° SE 08:25:50 10° E
Cosmos 1536 2.6 08:19:08 10° N 08:22:49 69° E 08:26:34 10° SSE
BREEZE-M DEB (TANK) 4.0 08:10:58 10° WSW 08:22:56 55° SSE 08:26:28 10° E
Cosmos 2297 Rocket 2.6 08:18:07 10° NNW 08:23:46 71° WSW 08:29:29 10° SSE
BREEZE-M DEB (TANK) 3.6 08:19:34 10° WSW 08:23:57 37° S 08:26:29 10° ESE
Cosmos 1980 3.7 08:26:09 10° SSW 08:31:53 82° ESE 08:37:32 10° NNE
Resurs 01 Rocket 2.0 08:27:46 10° S 08:32:14 69° WSW 08:36:39 10° NNW
ATLAS CENTAUR R/B 0.6 08:31:40 10° NNW 08:34:28 46° ENE 08:37:17 10° SE
Cosmos 1908 2.4 08:38:32 10° N 08:41:30 88° E 08:44:31 10° S
CZ-4B R/B 4.2 08:37:14 10° SE 08:41:39 26° E 08:45:25 13° NE
Cosmos 2219 4.2 08:37:41 10° NNE 08:42:20 26° ENE 08:47:01 10° SE
Cosmos 2237 Rocket 2.3 08:38:41 10° SSW 08:44:28 85° WNW 08:49:58 11° NNE
SL-14 R/B 3.1 08:44:25 10° S 08:48:15 73° E 08:51:34 13° NNE
CZ-4B R/B 4.2 08:50:43 10° S 08:54:34 62° WSW 08:58:14 10° NNW
USA 267 4.3 08:48:39 10° SE 08:54:58 50° SSW 09:01:17 10° WNW
ATLAS 3B R/B 3.2 08:49:15 10° SW 08:55:20 50° WNW 09:01:45 10° N
Cosmos 1607 4.0 08:49:01 10° NNW 08:55:21 68° ENE 09:01:45 10° SE
USA 186 2.6 08:58:10 10° SE 09:00:34 25° E 09:01:03 23° ENE
Cosmos 2263 Rocket 2.3 08:55:43 10° N 09:01:15 57° ENE 09:06:50 10° SSE
Cosmos 1538 Rocket 4.1 08:56:12 10° NNW 09:01:35 85° WSW 09:07:00 10° SSE
Cosmos 1766 3.3 08:59:18 10° NNW 09:02:37 61° W 09:06:01 10° S
Meteor 1-14 Rocket 4.4 08:58:10 10° NNW 09:03:43 76° W 09:09:22 10° S
CZ-4C R/B 3.3 08:56:55 10° N 09:05:39 54° ENE 09:13:10 10° SE
Helios 1A 3.0 09:05:15 15° N 09:08:29 75° WNW 09:12:32 10° SSW
OAO 2 Rocket 4.1 09:05:13 10° WNW 09:09:50 35° NNW 09:12:27 22° NE
Meteor 1-11 Rocket 3.7 09:08:36 10° N 09:14:13 77° E 09:19:49 10° SSE
CZ-4 R/B 1.6 09:10:36 10° S 09:14:26 66° WSW 09:18:16 10° NNW
Cosmos 1766 Rocket 3.5 09:11:16 16° N 09:14:37 64° E 09:18:57 10° SSE
Cosmos 2227 Rocket 2.7 09:09:24 10° NW 09:15:03 64° WSW 09:20:45 10° SSE
Cosmos 1818 3.6 09:09:40 10° SW 09:15:06 83° WNW 09:18:43 22° NNE
Meteor 1-31 Rocket 4.5 09:12:23 10° S 09:15:33 30° WSW 09:18:38 10° NW
Terra 2.4 09:11:37 10° SSE 09:16:05 39° E 09:18:29 23° NNE
Cosmos 1328 Rocket 3.5 09:16:14 10° S 09:20:40 68° E 09:23:05 25° NNE
Feng Yun 1-1 Rocket 4.3 09:16:56 10° SSE 09:22:56 76° ENE 09:28:38 11° N
Meteor 1-13 Rocket 4.3 09:17:38 10° S 09:23:33 76° E 09:27:22 22° NNE
MetOp-B 4.3 09:18:43 10° SSE 09:24:05 57° E 09:27:51 19° N
Sich 1 4.1 09:24:34 23° ENE 09:25:27 25° E 09:28:56 10° SSE
ISS -1.2 09:22:56 10° W 09:25:49 25° SSW 09:28:43 10° SE
Cosmos 1975 3.3 09:26:25 12° NNW 09:29:46 55° W 09:33:29 10° S
USA 234 3.3 09:25:21 22° NE 09:29:54 84° NW 09:36:32 10° SW
ATLAS 5 CENTAUR R/B 4.3 09:27:25 10° S 09:31:06 16° SSE 09:34:24 10° ESE
DELTA 2 R/B (1) 4.0 09:28:47 10° NW 09:33:53 38° NNE 09:39:01 10° E
Cosmos 2112 Rocket 4.3 09:31:44 24° NNE 09:34:40 49° ENE 09:39:50 10° SSE
Cosmos 2184 Rocket 4.2 09:32:18 23° NNE 09:36:02 55° E 09:42:08 10° SSE
CSL-04 Rocket 4.3 09:31:38 10° S 09:36:56 55° WSW 09:42:13 10° NNW
Cosmos 2056 Rocket 4.3 09:35:10 10° S 09:40:17 40° ESE 09:42:45 26° ENE
Cosmos 1300 3.2 09:40:20 23° NW 09:41:38 37° W 09:44:17 10° S
Cosmos 923 Rocket 4.0 09:38:16 10° NNW 09:43:30 84° WSW 09:48:51 10° SSE
Dummy Sat-02 4.5 09:46:35 47° NNE 09:47:31 75° E 09:51:13 10° S
USA 281 4.0 09:41:56 10° SE 09:47:40 30° ENE 09:49:23 27° NE
Cosmos 1470 3.7 09:45:24 16° NW 09:47:53 39° WSW 09:51:13 10° S
Cosmos 1703 3.3 09:47:47 10° S 09:51:03 43° E 09:51:11 43° E
Cosmos 1867 3.7 09:47:00 10° NW 09:52:24 74° WSW 09:57:50 10° SSE
Okean O Rocket 1.5 09:50:24 10° SSE 09:54:52 77° ENE 09:56:39 36° N
MOS 1 4.4 09:50:01 10° S 09:55:45 75° WSW 10:00:26 15° NNW
Cosmos 2084 Rocket 3.3 09:52:44 11° NW 09:56:42 85° SW 10:00:55 10° SE
Meteor 1-21 4.3 09:51:24 10° S 09:57:18 80° E 10:00:02 34° NNE
MOS 1-B 4.3 09:52:32 10° SSE 09:58:23 71° ENE 10:01:28 29° N
Okean-O 2.5 09:54:20 10° SSE 09:58:47 73° E 10:00:16 41° N
CZ-2C R/B 2.3 09:56:00 10° S 09:59:08 73° WSW 09:59:31 62° NW
Okean 2 4.1 09:56:03 10° S 09:59:41 34° ESE 10:00:00 34° E
OAO 3 Rocket 4.1 09:55:41 10° WNW 09:59:28 28° NNW 09:59:28 28° NNW
Cosmos 2082 3.7 09:56:32 14° NNW 10:01:34 86° WSW 10:07:20 10° SSE
IRS-1A Rocket 4.1 09:57:41 10° SSE 10:03:19 81° ENE 10:06:14 29° N
Cosmos 1371 Rocket 4.2 09:58:22 10° SSW 10:03:37 60° ESE 10:05:27 38° NE
Cosmos 1420 Rocket 4.1 09:59:27 10° SSW 10:04:46 75° WNW 10:06:51 38° N
ERS-1 Rocket 3.4 10:00:28 10° S 10:05:28 61° WSW 10:09:07 18° NNW
CRYOSAT 2 4.4 10:04:26 42° NNE 10:06:00 68° E 10:10:57 10° S
SL-16 R/B 2.4 10:00:35 10° SSW 10:06:17 66° WNW 10:08:44 34° N
Cosmos 1408 Rocket 3.6 10:06:45 50° NE 10:07:24 57° E 10:11:41 10° SSE
CZ-2C R/B 3.7 10:08:09 48° NE 10:09:12 64° ESE 10:13:40 10° S
ATLAS CENTAUR R/B 4.3 10:09:04 10° SW 10:09:31 10° SW 10:09:58 10° SW
Ariane Rocket 3.8 10:05:28 10° SSE 10:10:04 32° E 10:10:30 32° ENE
Cosmos 1048 Rocket 4.4 10:09:21 39° NE 10:10:16 43° ENE 10:15:17 10° SSE
Cosmos 494 Rocket 3.9 10:12:55 31° NNW 10:15:30 87° WSW 10:20:43 10° SSE
Cosmos 1680 Rocket 4.0 10:12:10 15° NW 10:16:36 59° WSW 10:21:54 10° SSE
Okean 3 Rocket 3.9 10:16:00 35° NNW 10:17:47 65° W 10:22:21 10° S
PSLV R/B 4.4 10:21:47 33° E 10:22:14 34° ESE 10:26:07 10° S
CZ-4B R/B 4.3 10:17:18 10° S 10:22:18 41° WSW 10:27:16 10° NW
USA 245 3.5 10:20:06 10° SSE 10:22:29 44° SSE 10:22:29 44° SSE
CZ-4B R/B 3.2 10:20:21 10° S 10:24:15 60° WSW 10:25:20 42° NW
Cosmos 2219 4.2 10:20:42 10° NW 10:26:10 45° WSW 10:31:41 10° SSE
Cosmos 1624 Rocket 3.9 10:21:16 10° SSW 10:26:33 85° WNW 10:27:55 51° N
Cosmos 1943 3.3 10:21:55 10° SSW 10:27:37 67° ESE 10:29:19 45° NE
Cosmos 2154 Rocket 4.3 10:25:13 25° NNW 10:28:56 66° W 10:35:12 10° S
Spot 2 Rocket 3.7 10:25:16 10° S 10:30:26 71° WSW 10:32:36 35° NNW
CZ-4C R/B 4.4 10:31:52 28° SE 10:31:52 28° SE 10:34:11 10° S
Cosmos 1743 Rocket 3.6 10:32:22 61° ENE 10:32:34 62° E 10:36:56 10° SSE
Cosmos 1515 Rocket 4.3 10:29:30 10° SSW 10:33:43 44° W 10:34:45 37° NW
GP-B 3.0 10:30:26 10° S 10:34:54 88° W 10:35:29 67° N
CZ-4B R/B 3.8 10:33:05 10° S 10:38:24 67° WSW 10:40:37 35° NW
Cosmos 1844 Rocket 2.6 10:37:00 50° N 10:38:26 71° ENE 10:44:07 10° SSE
SPOT 3 Rocket 3.5 10:36:09 10° SSE 10:41:27 78° ENE 10:42:34 56° N
Cosmos 1339 Rocket 4.5 10:38:00 10° S 10:44:20 85° W 10:46:27 46° N
Cosmos 2263 Rocket 4.4 10:41:05 10° WNW 10:45:32 23° SW 10:50:01 10° S
Cosmos 1666 Rocket 4.5 10:46:00 36° E 10:46:00 36° E 10:49:50 10° SSE
DELTA 2 DEB (DPAF) 3.8 10:46:24 73° SSE 10:46:24 73° SSE 10:49:58 10° S
Landsat 5 4.1 10:46:45 46° E 10:46:54 46° ESE 10:51:03 10° S
Cosmos 1452 Rocket 4.2 10:43:01 10° S 10:48:04 42° ESE 10:49:12 37° E
Nadezhda 3 Rocket 4.4 10:43:44 10° SSW 10:50:02 58° W 10:52:33 36° NNW
Terra 3.9 10:49:40 10° SSW 10:53:21 23° WSW 10:57:00 10° WNW
CZ-4C R/B 4.1 10:46:00 10° WNW 10:54:19 44° SW 11:01:17 10° SSE
Geosat 4.1 10:49:21 10° SE 10:54:20 54° ENE 10:54:20 54° ENE
Helios 1B rocket 2.6 10:53:21 10° SSE 10:56:17 55° SSE 10:56:17 55° SSE
NOSS 3-4 (A) 3.6 10:51:06 10° SSW 10:58:15 73° SE 11:00:12 46° NE
NOSS 3-4 (C) 3.6 10:51:15 10° SSW 10:58:24 73° SE 11:00:22 45° NE
SL-8 Rocket 3.9 10:58:57 52° NNE 11:00:33 78° E 11:06:49 10° S
Okean 1-7 3.9 10:56:40 10° S 11:00:26 37° ESE 11:00:26 37° ESE
Cosmos 1603 3.9 10:56:54 10° SSW 11:02:39 63° ESE 11:03:57 49° ENE
ISS -0.4 11:01:38 10° SW 11:03:31 14° S 11:05:24 10° SSE
Meteor 2-10 Rocket 4.2 11:08:10 36° NW 11:10:08 53° WSW 11:15:49 10° S
Cosmos 1633 Rocket 3.4 11:13:01 56° ESE 11:13:01 56° ESE 11:16:51 10° SSE
BlueWalker 3 3.1 11:14:19 37° SSE 11:14:19 37° SSE 11:16:44 10° SE
Cosmos 1821 Rocket 4.1 11:13:11 50° NE 11:14:17 57° E 11:20:22 10° SSE
ATLAS 5 CENTAUR R/B 1.9 11:09:20 10° SSW 11:15:01 67° SE 11:15:34 61° E
Cosmos 468 4.5 11:14:52 65° NNW 11:15:40 84° WSW 11:21:02 10° SSE
DELTA 2 R/B (1) 3.4 11:14:22 10° WNW 11:19:56 74° N 11:25:30 10° E
Cosmos 1758 4.2 11:21:43 41° SW 11:21:43 41° SW 11:24:50 10° S
Cosmos 1110 Rocket 4.0 11:18:33 10° SSW 11:23:50 68° WNW 11:24:13 65° NW
Cosmos 1727 Rocket 4.5 11:20:56 10° S 11:26:59 48° ESE 11:28:21 42° ENE
CZ-2C R/B 3.6 11:26:35 50° ENE 11:27:43 59° ESE 11:33:30 10° S
Cosmos 2366 rocket 4.1 11:28:07 49° NNW 11:29:53 70° W 11:36:20 10° S
Okean O Rocket 4.4 11:29:08 10° SW 11:30:23 11° WSW 11:31:39 10° WSW
USA 281 3.9 11:25:57 10° SSE 11:32:19 51° WSW 11:36:14 24° NW
Meteor 1-22 Rocket 4.1 11:34:55 70° N 11:35:36 87° E 11:41:12 10° S
Cosmos 1470 Rocket 3.9 11:36:12 60° SE 11:36:12 60° SE 11:39:58 10° SSE
Meteor 1-24 Rocket 3.8 11:33:54 10° S 11:39:44 64° ESE 11:40:31 58° ENE
Spot 1 4.3 11:40:53 69° ESE 11:40:53 69° ESE 11:45:23 10° S
Cosmos 1331 Rocket 4.5 11:39:33 10° SSW 11:44:39 47° WNW 11:44:47 47° WNW
Cosmos 1862 Rocket 4.2 11:43:09 10° SSW 11:46:54 47° WSW 11:46:54 47° WSW
Ariane Rocket 4.5 11:44:23 10° S 11:48:50 30° WSW 11:50:34 24° W
Cosmos 921 Rocket 4.5 11:51:28 27° ESE 11:51:28 27° ESE 11:54:03 10° SE
Cosmos 44 Rocket 3.5 11:51:33 63° ESE 11:51:33 63° ESE 11:55:54 10° SE
Cosmos 1809 Rocket 4.3 11:46:45 10° S 11:52:59 89° E 11:53:58 65° N
